CW7054 Weather Reports


Display with metric or nautical units.
time (UTC)temp
F
wind
direction
speed
MPH
gust
MPH
rain 1hr
in
rain 24hr
in
rain mn
in
humidity
%
barometer
mb
20260831183023 75 109 0.0 4.0 0.00 0.15 0.08 74 1019.3
20260831181525 75 75 1.0 6.0 0.00 0.15 0.08 72 1019.5
20260831180028 75 68 1.0 8.0 0.00 0.15 0.08 73 1019.7
20260831174521 75 65 0.0 6.0 0.01 0.16 0.08 74 1019.3
20260831173020 74 67 0.0 11.0 0.01 0.16 0.08 80 1019.6
20260831171519 74 107 0.0 8.0 0.01 0.16 0.08 78 1019.7
20260831170019 75 148 0.0 6.0 0.01 0.16 0.08 78 1019.6
20260831164518 75 104 0.0 7.0 0.00 0.16 0.07 78 1019.7
20260831163017 75 41 3.0 9.0 0.00 0.16 0.07 78 1019.8
20260831161516 75 130 1.0 9.0 0.01 0.16 0.07 77 1019.7
20260831160026 75 127 1.0 6.0 0.01 0.16 0.07 71 1019.7
20260831154519 75 65 1.0 4.0 0.01 0.17 0.07 71 1019.7
20260831153015 75 104 1.0 13.0 0.01 0.17 0.07 70 1019.6
20260831151515 75 67 2.0 6.0 0.00 0.16 0.06 74 1019.8
20260831150015 75 68 2.0 8.0 0.00 0.16 0.06 77 1019.9
20260831144519 75 80 0.0 5.0 0.01 0.16 0.06 76 1019.7
20260831143005 75 55 0.0 6.0 0.01 0.16 0.06 75 1019.9
20260831141503 75 66 1.0 5.0 0.01 0.16 0.06 73 1019.9
20260831140059 74 65 0.0 6.0 0.01 0.16 0.06 76 1019.7
20260831134559 74 65 1.0 6.0 0.00 0.16 0.05 77 1019.4
20260831133052 73 91 0.0 9.0 0.00 0.16 0.05 79 1019.3
20260831131551 72 42 2.0 10.0 0.01 0.16 0.05 80 1019.3
20260831130051 72 59 1.0 9.0 0.01 0.16 0.05 82 1019.2
20260831124548 72 50 1.0 6.0 0.01 0.16 0.05 84 1019.1
20260831123047 71 77 1.0 6.0 0.01 0.16 0.05 86 1019.2
20260831121545 70 44 0.0 3.0 0.00 0.15 0.04 89 1019.2
20260831120043 69 57 0.0 2.0 0.00 0.15 0.04 89 1019.1
20260831114542 69 61 0.0 2.0 0.00 0.16 0.04 90 1018.9
20260831113039 68 52 0.0 4.0 0.01 0.16 0.04 90 1018.7
20260831111602 68 55 0.0 4.0 0.01 0.16 0.04 90 1018.7
20260831110048 68 51 0.0 5.0 0.01 0.16 0.04 90 1018.5
20260831104536 67 46 0.0 4.0 0.01 0.16 0.04 90 1018.4
20260831103033 67 55 1.0 5.0 0.00 0.15 0.03 90 1018.2
20260831101533 67 55 1.0 6.0 0.00 0.15 0.03 91 1018.1
20260831100032 67 34 2.0 8.0 0.01 0.15 0.03 91 1017.9
20260831094535 67 52 1.0 6.0 0.01 0.15 0.03 92 1017.9
20260831093029 67 50 0.0 4.0 0.01 0.15 0.03 92 1018.1
20260831091529 67 51 0.0 3.0 0.01 0.15 0.03 92 1017.9
20260831090028 67 51 0.0 2.0 0.00 0.14 0.02 92 1018.1
20260831084538 67 46 2.0 7.0 0.00 0.15 0.02 92 1017.8
20260831083025 68 35 0.0 4.0 0.00 0.15 0.02 93 1017.8
20260831081528 68 32 0.0 1.0 0.01 0.15 0.02 93 1017.8
20260831080022 68 32 0.0 3.0 0.01 0.15 0.02 93 1018.1
20260831074535 69 69 0.0 4.0 0.01 0.15 0.02 93 1018.0
20260831073052 69 96 0.0 1.0 0.01 0.15 0.02 94 1018.1
20260831071518 69 96 0.0 0.0 0.00 0.14 0.01 94 1017.8
20260831070021 70 96 0.0 1.0 0.00 0.14 0.01 94 1017.7
20260831064528 70 96 0.0 1.0 0.00 0.14 0.01 94 1017.9
20260831063018 70 96 0.0 1.0 0.00 0.14 0.01 94 1017.8
20260831061510 71 210 0.0 2.0 0.01 0.14 0.01 94 1017.7
20260831060009 71 212 0.0 0.0 0.01 0.14 0.01 94 1017.6
20260831054509 71 212 0.0 1.0 0.01 0.15 0.01 94 1017.5
20260831053017 71 212 0.0 2.0 0.01 0.15 0.01 94 1017.6
20260831051513 71 212 0.0 0.0 0.00 0.14 0.00 94 1017.6
20260831050024 71 212 0.0 1.0 0.00 0.14 0.00 94 1017.5
20260831044505 71 212 0.0 0.0 0.00 0.14 0.00 94 1017.5
20260831043002 71 212 0.0 0.0 0.01 0.14 0.00 94 1017.2
20260831041503 72 212 0.0 0.0 0.01 0.14 0.00 94 1017.3
20260831040059 72 212 0.0 1.0 0.01 0.14 0.00 94 1017.2
20260831034557 72 211 0.0 4.0 0.01 0.14 0.14 93 1017.4
20260831033057 72 211 0.0 2.0 0.00 0.13 0.13 94 1017.6
20260831031557 72 213 0.0 3.0 0.00 0.13 0.13 94 1017.8
20260831030059 73 213 0.0 1.0 0.00 0.13 0.13 94 1017.9
20260831024557 73 213 0.0 2.0 0.00 0.13 0.13 93 1018.0
20260831023055 73 222 0.0 4.0 0.01 0.13 0.13 93 1018.0
20260831021558 73 260 1.0 9.0 0.01 0.13 0.13 93 1017.9
20260831020054 73 224 0.0 7.0 0.01 0.13 0.13 92 1017.9
20260831014555 73 278 1.0 8.0 0.00 0.12 0.12 92 1017.9
20260831013055 73 235 0.0 10.0 0.00 0.12 0.12 91 1017.9
20260831011553 73 189 2.0 5.0 0.00 0.12 0.12 91 1017.9
20260831010057 73 268 1.0 7.0 0.00 0.12 0.12 90 1017.7
20260831004553 73 175 0.0 5.0 0.01 0.12 0.12 90 1017.7
20260831003052 73 172 2.0 8.0 0.01 0.12 0.12 89 1017.6
20260831001551 73 175 0.0 9.0 0.01 0.12 0.12 89 1017.6
20260831000059 73 161 1.0 6.0 0.01 0.12 0.12 89 1017.4
20260830234557 73 166 2.0 10.0 0.00 0.11 0.11 88 1017.3
20260830233100 73 171 0.0 5.0 0.00 0.11 0.11 88 1017.3
20260830231550 73 186 0.0 7.0 0.01 0.11 0.11 87 1017.4
20260830230050 73 162 2.0 6.0 0.01 0.11 0.11 86 1017.2
20260830224548 74 211 1.0 7.0 0.01 0.11 0.11 86 1017.6
20260830223049 74 191 1.0 12.0 0.00 0.10 0.10 85 1017.6
20260830221550 74 252 1.0 7.0 0.00 0.10 0.10 84 1017.7
20260830220059 74 188 0.0 7.0 0.01 0.10 0.10 84 1017.7
20260830214546 75 250 1.0 9.0 0.01 0.10 0.10 84 1017.6
20260830213045 75 255 1.0 6.0 0.01 0.10 0.10 85 1017.7
20260830211548 75 227 2.0 7.0 0.01 0.10 0.10 84 1017.9
20260830210043 75 244 1.0 7.0 0.00 0.09 0.09 83 1017.8
20260830204554 75 214 1.0 8.0 0.01 0.09 0.09 82 1018.0
20260830203040 76 173 1.0 8.0 0.01 0.09 0.09 81 1018.0
20260830201552 77 182 2.0 10.0 0.01 0.09 0.09 80 1018.1
20260830200044 77 249 2.0 16.0 0.01 0.09 0.09 79 1018.1
20260830194540 78 172 1.0 9.0 0.01 0.08 0.08 80 1018.4
20260830193035 78 176 1.0 12.0 0.01 0.08 0.08 78 1018.4
20260830191612 78 169 0.0 8.0 0.01 0.08 0.08 79 1018.7
20260830190041 78 276 1.0 9.0 0.01 0.08 0.08 80 1018.8
20260830184533 77 186 2.0 11.0 0.00 0.07 0.07 79 1018.9